Location: Gad�tanya
(48.0500°N, 20.8500°E)
Time: 11:06:15
(UTC+00:00)

Cosmos 1943 Rocket - Pass Details

Date: 05 July 2020
Orbit: 811 x 845 km, 71.0° (Epoch: 14 August)

Event Time Altitude Azimuth Distance (km) Brightness Sun altitude
Rises 22:54:04 0° 330° (NNW) 3,415 6.3 -19.2°
Reaches altitude 10° 22:56:32 10° 329° (NNW) 2,476 5.4 -19.2°
Maximum altitude 23:02:11 71° 246° (WSW) 891 2.2 -19.1°
Enters shadow 23:04:41 34° 171° (S) 1,353 2.7 -19.1°
